Camarillo, CA

5:15 AM PDT on March 26, 2017 (GMT -0700)
Camarillo

Weather History for KCMA - December, 2014

Change the Weather History Date:

Friday, December 12, 2014

  Actual Average Record
Temperature  
Mean Temperature 57 °F 54 °F  
Max Temperature 65 °F 66 °F 88 °F (2010)
Min Temperature 49 °F 42 °F 32 °F (1972)
Degree Days  
Heating Degree Days 8 11  
Month to date heating degree days 39 129  
Since 1 July heating degree days 126 461  
Cooling Degree Days 0 0  
Month to date cooling degree days 0 0  
Year to date cooling degree days 1009 330  
Growing Degree Days 6 (Base 50)    
Moisture  
Dew Point 52 °F    
Average Humidity 77    
Maximum Humidity 93    
Minimum Humidity 60    
Precipitation  
Precipitation 2.40 in 0.04 in 2.40 in (2014)
Month to date precipitation 3.69 0.46  
Year to date precipitation 8.74 13.62  
Since 1 July precipitation 4.55  
Sea Level Pressure  
Sea Level Pressure 29.91 in    
Wind  
Wind Speed 9 mph (WSW)    
Max Wind Speed 28 mph    
Max Gust Speed 40 mph    
Visibility 6 miles    
Events Fog , Rain    
T = Trace of Precipitation, MM = Missing Value Source: NWS Daily Summary

Daily Weather History Graph

Daily Weather History Graph

Search for Another Location

Airport or City:

Trip Planner

Search our weather history database for the weather conditions in past years. The results will help you decide how hot, cold, wet, or windy it might be!

Date:

Astronomy

Dec. 12, 2014 Rise Set
Actual Time 6:52 AM PST 4:47 PM PST
Civil Twilight 6:25 AM PST 5:15 PM PST
Nautical Twilight 5:53 AM PST 5:46 PM PST
Astronomical Twilight 5:23 AM PST 6:16 PM PST
Moon 10:45 PM PST (12/12) 11:00 AM PST (12/12)
Length of Visible Light 10h 49m
Length of Day
9h 54m
Waning Gibbous, 66% of the Moon is Illuminated
Dec 12
Waning Gibbous
Dec 14
Last Quarter
Dec 21
New
Dec 28
First Quarter
Jan 4
Full

Hourly Weather History & Observations

Time (PST) Temp. Dew Point Humidity Pressure Visibility Wind Dir Wind Speed Gust Speed Precip Events Conditions
12:55 AM 63.0 °F 55.9 °F 78% 29.79 in 8.0 mi ESE 20.7 mph 32.2 mph 0.01 in Rain Light Rain
1:36 AM 57.9 °F 53.1 °F 84% 29.82 in 8.0 mi WSW 17.3 mph 32.2 mph 0.00 in Rain Light Rain
1:41 AM 57.0 °F 53.1 °F 87% 29.83 in 2.5 mi WSW 13.8 mph 32.2 mph 0.03 in Rain Heavy Rain
1:43 AM 55.9 °F 53.1 °F 90% 29.83 in 1.2 mi WSW 19.6 mph 26.5 mph 0.06 in Rain Heavy Rain
1:49 AM 55.4 °F 53.6 °F 94% 29.83 in 0.5 mi WSW 16.1 mph 26.5 mph 0.19 in Fog , Rain Heavy Rain
1:55 AM 55.9 °F 54.0 °F 93% 29.86 in 0.8 mi West 18.4 mph - 0.55 in Rain Heavy Rain
2:03 AM 55.9 °F 54.0 °F 93% 29.83 in 1.8 mi WSW 11.5 mph - 0.36 in Rain Heavy Rain
2:10 AM 55.9 °F 54.0 °F 93% 29.84 in 2.5 mi WSW 9.2 mph - 0.39 in Rain Rain
2:14 AM 57.0 °F 54.0 °F 89% 29.84 in 3.0 mi Variable 4.6 mph - 0.40 in Rain Rain
2:36 AM 57.0 °F 53.1 °F 87% 29.86 in 4.0 mi WSW 8.1 mph - 0.44 in Rain Rain
2:42 AM 57.0 °F 54.0 °F 89% 29.86 in 2.5 mi West 8.1 mph - 0.48 in Rain Heavy Rain
2:52 AM 55.4 °F 53.6 °F 94% 29.86 in 1.8 mi WSW 9.2 mph - 0.56 in Rain Heavy Rain
2:55 AM 55.9 °F 53.1 °F 90% 29.88 in 2.0 mi West 11.5 mph - 0.57 in Rain Heavy Rain
3:15 AM 55.9 °F 53.1 °F 90% 29.86 in 4.0 mi West 4.6 mph - 0.06 in Rain Rain
3:55 AM 55.0 °F 52.0 °F 89% 29.86 in 4.0 mi ENE 4.6 mph - 0.15 in Rain Rain
4:55 AM 55.0 °F 52.0 °F 89% 29.84 in - ENE 8.1 mph - 0.22 in Rain Heavy Rain
5:09 AM 55.0 °F 52.0 °F 89% 29.82 in - ENE 13.8 mph - 0.04 in Rain Heavy Rain
5:55 AM 55.9 °F 53.1 °F 90% 29.86 in - SSE 4.6 mph - 0.12 in Rain Light Rain
6:04 AM 55.9 °F 53.1 °F 90% 29.85 in - Variable 5.8 mph - 0.01 in Rain Light Rain
6:21 AM 55.9 °F 52.0 °F 87% 29.84 in - ENE 4.6 mph - 0.01 in Rain Light Rain
6:43 AM 55.0 °F 53.1 °F 93% 29.83 in - NNE 6.9 mph - 0.18 in Rain Heavy Rain
6:52 AM 55.4 °F 53.6 °F 94% 29.83 in - NNW 6.9 mph - 0.30 in Rain Heavy Rain
6:55 AM 55.0 °F 53.1 °F 93% 29.86 in 3.0 mi Variable 4.6 mph - 0.33 in Rain Light Rain
7:55 AM 57.0 °F 53.1 °F 87% 29.88 in 3.0 mi West 5.8 mph - 0.44 in Rain Rain
8:23 AM 55.0 °F 52.0 °F 89% 29.88 in - North 6.9 mph - 0.00 in Rain Rain
8:55 AM 57.9 °F 52.0 °F 81% 29.92 in - ENE 3.5 mph - 0.00 in   Scattered Clouds
9:55 AM 60.1 °F 52.0 °F 75% 29.95 in - Calm Calm - N/A   Scattered Clouds
10:24 AM 60.1 °F 52.0 °F 75% 29.93 in 10.0 mi WSW 9.2 mph - 0.00 in Rain Light Rain
10:55 AM 60.1 °F 54.0 °F 80% 29.95 in 10.0 mi WSW 11.5 mph - 0.00 in   Overcast
11:55 AM 62.1 °F 51.1 °F 67% 29.95 in - WSW 16.1 mph - N/A   Mostly Cloudy
12:55 PM 63.0 °F 50.0 °F 63% 29.95 in 10.0 mi West 16.1 mph - N/A   Mostly Cloudy
1:25 PM 63.0 °F 50.0 °F 63% 29.92 in - West 15.0 mph - N/A   Partly Cloudy
1:55 PM 63.0 °F 48.9 °F 60% 29.95 in 10.0 mi WSW 15.0 mph - N/A   Partly Cloudy
2:55 PM 63.0 °F 50.0 °F 63% 29.96 in - West 15.0 mph - N/A   Clear
3:55 PM 61.0 °F 48.0 °F 62% 29.98 in - West 13.8 mph - N/A   Unknown
4:55 PM 59.0 °F 50.0 °F 72% 30.00 in - WSW 8.1 mph - N/A   Partly Cloudy
5:55 PM 57.9 °F 50.0 °F 75% 30.01 in 10.0 mi WSW 9.2 mph - N/A   Clear
6:55 PM 57.9 °F 48.9 °F 72% 30.03 in 10.0 mi WSW 8.1 mph - N/A   Clear
7:55 PM 57.0 °F 48.9 °F 74% 30.06 in 10.0 mi WSW 9.2 mph - 0.01 in Rain Light Rain
8:55 PM 55.0 °F 48.0 °F 77% 30.07 in 10.0 mi Calm Calm - 0.00 in   Clear
9:55 PM 52.0 °F 48.0 °F 86% 30.09 in 10.0 mi East 3.5 mph - N/A   Clear
10:55 PM 50.0 °F 46.9 °F 89% 30.10 in 9.0 mi ENE 4.6 mph - N/A   Clear
11:55 PM 50.0 °F 46.9 °F 89% 30.10 in 10.0 mi Calm Calm - N/A   Clear